Terminal Aerodrome Forecast
Issued by NWS Wakefield, VA

Home | Current Version | Previous Version | Text Only | Print | Product List | Glossary On
Versions: 1 2 3 4 5 6 7 8 9 10 11 12 13 14 15 16 17 18 19
200
FTUS41 KAKQ 091004 AAB
TAFORF
TAF AMD
KORF 091004Z 0910/1006 26006KT P6SM BKN020 BKN070
     FM091600 25010G17KT P6SM BKN050
     FM100000 26009KT P6SM BKN050=

USA.gov is the U.S. government's official web portal to all federal, state and local government web resources and services.